Погода в Лазареве

Россия / Тульская область     53°51′14″N   37°29′17″E
темп.,
°C
ветер,
м/с
пор.,
м/с
влажн.,
%
обл.,
%
осадки,
мм/ч
давл.,
гПа
погр.,
м
9 мая, вс
вс900:00+8зюз4994100 0.0 1003441
03:00+7сз5796100 2.1 1005565
06:00+3сз81597100 2.7 1008881
09:00+3сз91597100 7.7 1011882
12:00+7сз91277100 1.0 10141373
15:00+8сз91169100 1.1 10161531
18:00+9сз711675 0.1 10181322
21:00+5сз411795 0.1 1021233
10 мая, пн
пн1000:00+4сз413815 0.0 1023269
03:00+2ссз411780 0.0 1025213
06:00+3ссз410790 0.0 1027227
09:00+9ссв58600 0.0 1028835
12:00+11ссв68450 0.0 10271430
15:00+12ссв79492 0.0 10271473
18:00+11ссв610600 0.0 10271095
21:00+7ссв412762 0.0 1028241
11 мая, вт
вт1100:00+6св514720 0.0 1028303
03:00+5св514782 0.0 1028330
06:00+5св615802 0.0 1028428
09:00+10св812662 0.0 1027618
12:00+14всв71063100 0.0 1027823
15:00+16всв7968100 0.0 1026983
18:00+14всв5979100 0.0 1027573
21:00+13св5118688 0.0 1025334
12 мая, ср
ср1200:00+12всв6159089 0.1 1024488
03:00+11всв4795100 0.1 1024322
06:00+11св51097100 0.1 1022431
09:00+11св71597100 4.1 1020647
12:00+9ююз469289 3.1 1024316
15:00+15юв446415 3.1 10231247
18:00+15в3569100 0.0 1023975
21:00+12всв3688100 0.0 1022126
13 мая, чт
чт1300:00+12всв3895100 0.1 1020206
03:00+13вюв51197100 1.6 1018477
06:00+13вюв6129599 3.4 1018583
09:00+13вюв51092100 4.2 1018598
12:00+15юв698899 0.6 1018772
15:00+18ююв577048 1.0 10171276
18:00+18юв4772100 0.3 1017265
21:00+14вюв4993100 0.3 1017161